This demonstration page uses our WeatherBlox Daily Observations layout. Learn more.

Left ArrowRight Arrow

Hourly Observations for February 16, 2016

Temp ( °F °C ) Dew Point ( °F °C ) Humidity (%) Winds ( mph kmh ) Pressure ( in mb ) Visibility ( mi km ) Precip ( " mm )
12:54 am 00:54 Mostly Cloudy 39 3.9 33 0.6 79 79 NW 6 9 29.68 1005 10 16 0.00 0.03
1:54 am 01:54 Mostly Clear 41 5 34 1.1 76 76 NW 13 20 29.69 1006 10 16 0.00 0.00
2:54 am 02:54 Cloudy 40 4.4 34 1.1 79 79 WNW 14 22 29.72 1006 10 16 0.00 0.00
3:54 am 03:54 Cloudy 41 5 35 1.7 79 79 NW 18 30 29.73 1007 10 16 0.00 0.00
4:46 am 04:46 Cloudy 41 5 36 2 81 81 NW 24 39 29.77 1008 10 16 0.00 0.00
4:54 am 04:54 Cloudy 40 4.4 35 1.7 83 83 NNW 24 39 29.76 1008 10 16 0.00 0.00
5:11 am 05:11 Cloudy 39 4 34 1 81 81 NNW 23 37 29.80 1009 10 16 0.00 0.00
5:31 am 05:31 Cloudy 40 4.4 35 1.7 83 83 NNW 22 35 29.83 1010 10 16 0.00 0.00
5:54 am 05:54 Cloudy 39 3.9 34 1.1 82 82 NNW 20 31 29.83 1010 10 16 0.00 0.00
6:20 am 06:20 Cloudy 37 3 34 1 87 87 NNW 17 28 29.85 1011 10 16 0.00 0.00
6:54 am 06:54 Cloudy 38 3.3 32 0 79 79 NNW 21 33 29.88 1012 10 16 0.00 0.00
7:54 am 07:54 Cloudy 37 2.8 32 0 82 82 N 24 39 29.93 1014 10 16 0.00 0.00
8:54 am 08:54 Cloudy 38 3.3 32 0 79 79 NNW 14 22 29.99 1016 8 13 0.00 0.00
9:54 am 09:54 Cloudy 39 3.9 32 0 76 76 NNW 17 28 30.01 1016 10 16 0.00 0.00
10:54 am 10:54 Cloudy 39 3.9 32 0 76 76 NNW 17 28 30.04 1017 10 16 0.00 0.00
11:54 am 11:54 Cloudy 40 4.4 32 0 73 73 N 13 20 30.04 1017 10 16 0.00 0.00
12:43 pm 12:43 Partly Cloudy 42 5.6 33 0.6 71 71 N 18 30 30.06 1018 10 16 0.00 0.00
12:54 pm 12:54 Mostly Cloudy 41 5 32 0 70 70 N 16 26 30.04 1017 10 16 0.00 0.00
1:54 pm 13:54 Cloudy 40 4.4 32 0 73 73 N 13 20 30.04 1017 10 16 0.00 0.00
2:54 pm 14:54 Cloudy 41 5 33 0.6 73 73 NNE 7 11 30.05 1018 9 14 0.00 0.00
3:11 pm 15:11 Partly Cloudy 42 5.6 33 0.6 71 71 VRB 6 9 30.06 1018 10 16 0.00 0.00
3:54 pm 15:54 Mostly Cloudy 42 5.6 32 0 68 68 N 10 17 30.05 1018 9 14 0.00 0.00
4:54 pm 16:54 Sunny 42 5.6 33 0.6 71 71 NNE 5 7 30.05 1018 9 14 0.00 0.00
5:54 pm 17:54 Sunny 38 3.3 31 -0.6 76 76 SSE 3 6 30.06 1018 9 14 0.00 0.00
6:54 pm 18:54 Clear 35 1.7 30 -1.1 82 82 Calm 30.08 1019 9 14 0.00 0.00
7:54 pm 19:54 Clear 34 1.1 30 -1.1 85 85 SSE 7 11 30.09 1019 8 13 0.00 0.00
8:54 pm 20:54 Cloudy 35 1.7 32 0 89 89 SSE 5 7 30.09 1019 8 13 0.00 0.00
9:54 pm 21:54 Cloudy 34 1.1 31 -0.6 89 89 ESE 5 7 30.08 1019 8 13 0.00 0.00
10:54 pm 22:54 Cloudy 34 1.1 31 -0.6 89 89 S 3 6 30.09 1019 7 11 0.00 0.00
11:54 pm 23:54 Cloudy 34 1.1 31 -0.6 89 89 S 7 11 30.06 1018 7 11 0.00 0.00

Powered by AerisWeather